Погода Петропавловск-Камч.

Погода Петропавловск-Камч. : погода сейчас, прогноз погоды и архив. Всё, что Вы хотите узнать о погоде Петропавловск-Камч.!

Хотите узнать прогноз погоды Петропавловск-Камч.? Тогда Вам сюда: Погода Петропавловск-Камч.

Поиск расширенной информации на нашем сайте:

Другие новости

Новости СМИ2

Главная страница сайта

Новости сайта

03.07.2017

Напоминаем, что на нашем специализированном сайте Метеоцентр.Азия вы можете получить высокодетализированные автоматические прогнозы погоды по пунктам России, СНГ и мира в авиационном формате (включающие направление и скорость ветра, видимость, явления погоды, количество и форму облачности, нижнюю и верхнюю границу облачности).


Погода Петропавловск-Камч. - сегодня

Время (UTC), дата Ветер
(°,м/с) 
Видим.   Явления Облачность Т
(°С)
Тd
(°С)
f(%) Тe
(°С)
Pmin
(гПа)
dP
(гПа)
Po
(мм)
O2
(г/м3)
Тmin Tmax R s Состояние
почвы
00 21.09.17 100 (В) 5-12{12}  2000 м  ливневой дождь  10/10 200 м кучево-дожд. 
[Cb cap]
+10.7 +8.9 89 +10  1013.2  758  292           
06 21.09.17 100 (В) 5-12{13}  2000 м  слаб. ливневой дождь  10/10 200 м кучево-дожд. 
[Cb cap]
+10.3 +8.6 89 +9  1013.1  0.2  758  293           
09 21.09.17 100 (В) 5-12{13}  2000 м  слаб. ливневой дождь  10/10 200 м кучево-дожд. 
[Cb cap]
+10.1 +8.5 90 +9  1014  0.9  758  293    +10.7  18     
12 21.09.17 080 (В) 3-11{12}  4000 м  ливневой дождь  10/10 200 м кучево-дожд. 
[Cb cap]
+10.1 +8.3 89 +10  1014.4  0.3  759  293           
15 21.09.17 100 (В) 5-12{12}  4000 м  слаб. ливневой дождь  10/10 200 м кучево-дожд. 
[Cb cap]
+10.2 +8.3 88 +9  1014.8  0.4  759  293           
18 21.09.17 070 (В) 4{12}  4000 м  слаб. ливневой дождь  10/10 200 м кучево-дожд. 
[Cb cap]
+10.1 +8.4 89 +9  1015  0.1  759  293           
21 21.09.17 090 (В) 3-10{11}  10 км  слаб. ливневой дождь  10/10 200 м кучево-дожд. 
[Cb cap]
+10.8 +8.7 87 +10  1015.7  0.8  760  293  +9.8       
00 22.09.17 130 (ЮВ) 3{10}  4000 м  слаб. ливневой дождь  10/10 200 м кучево-дожд. 
[Cb cap]
+11.2 +9.7 90 +12  1016.3  0.6  760  292           
03 22.09.17 140 (ЮВ) 4000 м  ливневой дождь  10/10 200 м кучево-дожд. 
[Cb cap]
+11.3 +10.2 93 +13  1015.9  -0.4  760  292           
06 22.09.17 150 (ЮВ) 4000 м  ливневой дождь  10/10 300 м кучево-дожд. 
[Cb cap]
+10.8 +9.8 94 +11  1016.2  0.3  760  293           
09 22.09.17 140 (ЮВ) 4000 м  слаб. ливневой дождь  10/10 300 м кучево-дожд. 
[Cb cap]
+10.4 +9.5 94 +11  1017.1  0.8  761  294    +11.4  17     
12 22.09.17 тихо ()   10 км  слаб. ливневой дождь  10/10 300 м кучево-дожд. 
[Cb cap]
+10.5 +9.7 95 +11  1017.8  0.7  761  294           
15 22.09.17 360 (С) 2000 м  туман на расстоянии{ливн. осадки}  10/10 200 м 
[St]
+10.3 +9.5 95 +10  1018  0.3  761  294           
18 22.09.17 330 (СЗ) 0500 м  туман{ливн. осадки}  ?/?  
+9.3 +8.5 95 +9  1018.7  0.7  762  295           
21 22.09.17 310 (СЗ) 0050 м  туман  ?/?  
+8.1 +7.3 95 +9  1019.4  0.6  762  297  +8    0.7     
00 23.09.17 320 (СЗ) 20000 м  {туман}  ясно 
+10.8 +8.3 85 +12  1019.5  0.2  762  294  +7.9         
03 23.09.17 150 (ЮВ) 20000 м    1/1 600 м 
[Sc]
+14.9 +8.3 65 +15  1018.5  -1  762  290           
06 23.09.17 140 (ЮВ) 20000 м    ясно 
+13.5 +7.6 67 +14  1018.4  0.1  762  291           
09 23.09.17 020 (С) 20000 м    ясно 
+12 +6.3 68 +12  1019  0.6  762  293    +16.5       
12 23.09.17 010 (С) 20000 м    ясно 
+11 +5.4 68 +10  1019.8  0.8  763  295           
15 23.09.17 340 (С) 20000 м    ясно 
+7.6 +6.2 91 +8  1019.7  -0.2  763  298           
18 23.09.17 340 (С) 20000 м    ясно 
+7.7 +5.5 86 +7  1020.1  0.4  763  298           
21 23.09.17 320 (СЗ) 20000 м  местами туман поземный  5/1 300 м средняя, верхняя 
[St|Ac trans|Ci fib]
+6.6 +5.4 92 +6  1020.8  0.6  763  299  +6.3        влажная 
00 24.09.17 270 (З) 20000 м    3/0 средняя, верхняя 
[Ac trans|Ci fib]
+11.5 +6.9 73 +13  1020.2  -0.5  763  294           
03 24.09.17 150 (ЮВ) 20000 м    ясно 
+12.8 +7.9 72 +13  1018.8  -1.4  762  292           
Время (UTC), дата Ветер
(°,м/с) 
Видим.   Явления Облачность Т
(°С)
Тd
(°С)
f(%) Тe
(°С)
Pmin
(гПа)
dP
(гПа)
Po
(мм)
O2
(г/м3)
Тmin Tmax R s Состояние
почвы

Для получения пояснительной информации подведите курсор к названию столбца.

ПОГОДА Петропавловск-Камч. - архив

Всё, что Вы хотите узнать о погоде Петропавловск-Камч. - удобно и подробно!

Выберите нужную дату (начиная с 1 января 2015* года) и нажмите кнопку "Найти".
Будут отображены архивные сводки погоды по пункту Петропавловск-Камч., начиная с указанной даты.


Отображать данные в формате CSV (для использования в таблицах Excel)


Внимание! Наш архив погоды предназначен исключительно для личного некоммерческого использования в познавательных целях. Если Вам необходимы официальные справки о состоянии погоды (для производственных, юридических, коммерческих и т.п. целей), обращайтесь в органы Росгидромета.

*Примечание: данная дата относится к архиву по метеостанциям СССР (Россия, СНГ, Балтия).
Архив по метеостанциям Зарубежной Европы и Азии (кроме Китая) хранится 10 дней, по другим регионам земного шара (Китай, Африка, Америка, Австралия, Океания) - 1 день.

Петропавловск-Камч. - район местоположения метеостанции


Название, широта, долгота, высота метеостанции:
Петропавловск-Камч. (обсерватория) 53°ш. 158.6°д. 24 м над ур. моря [Российская Федерация]

Дополнительная информация

В oтличие oт бoльшинства пoгoдных сайтoв мы публикуем пoдрoбную метеoинфoрмацию в детальнoм прoфессиoнальнoм фoрмате.

Характеристики температуры и влажнoсти вoздуха измеряются на высoте 2 м в тени вдали oт зданий и деревьев.
Скoрoсть ветра измеряется на высoте 10 м (на урoвне рoста челoвека скoрoсть ветра ниже в 1.5-2 раза). Если метеoстанция нахoдится в гoрoде или в лесу, тo скoрoсть ветра занижена на 2-4 м/с пo сравнению с oткрытым местoм. Скoрoсть ветра над акватoриями крупных рек и oзёр, а также на вершинах хoлмoв на 2-5 м/с выше, чем в oбычных услoвиях.
Атмoсфернoе давление в разных тoчках местнoсти мoжет значительнo oтличаться oт давления на метеoстанции, в зависимoсти oт услoвий рельефа (при пoдъёме на 10 м давление пoнижается примернo на 1 мм рт.ст.).